Weather History for KLNP - February, 2013

Change the Weather History Date:

Thursday, February 28, 2013

  Actual Average (KTRI) Record (KTRI)
Temperature  
Mean Temperature 30 °F 42 °F  
Max Temperature 32 °F 54 °F 73 °F (1939)
Min Temperature 28 °F 31 °F 12 °F (1947)
Degree Days  
Heating Degree Days 35 23  
Month to date heating degree days 728  
Since 1 July heating degree days 3382  
Cooling Degree Days 0 0  
Month to date cooling degree days 0  
Year to date cooling degree days 0  
Moisture  
Dew Point 29 °F    
Average Humidity 93    
Maximum Humidity 100    
Minimum Humidity 75    
Precipitation  
Precipitation 0.00 in 0.12 in 1.68 in (2011)
Month to date precipitation 3.45  
Year to date precipitation 6.82  
Snow  
Snow 0.00 in 0.10 in - ()
Month to date snowfall 3.4  
Since 1 July snowfall 10.8  
Snow Depth -    
Sea Level Pressure  
Sea Level Pressure 29.78 in    
Wind  
Wind Speed 9 mph (West)    
Max Wind Speed 16 mph    
Max Gust Speed 23 mph    
Visibility 3 miles    
Events Snow    
T = Trace of Precipitation, MM = Missing Value Source: NWS Daily Summary

Daily Weather History Graph

Daily Weather History Graph

Search for Another Location

Airport or City:

Trip Planner

Search our weather history database for the weather conditions in past years. The results will help you decide how hot, cold, wet, or windy it might be!

Date:

Astronomy

Feb. 28, 2013 Rise Set
Actual Time 7:02 AM EST 6:23 PM EST
Civil Twilight 6:35 AM EST 6:49 PM EST
Nautical Twilight 6:05 AM EST 7:19 PM EST
Astronomical Twilight 5:35 AM EST 7:49 PM EST
Moon 9:42 PM EST (2/28) 8:16 AM EST (2/28)
Length of Visible Light 12h 13m
Length of Day
11h 21m
Waning Gibbous, 91% of the Moon is Illuminated
Feb 28
Waning Gibbous
Mar 4
Last Quarter
Mar 11
New
Mar 19
First Quarter
Mar 27
Full

Hourly Weather History & Observations

Time (EST) Temp. Windchill Dew Point Humidity Pressure Visibility Wind Dir Wind Speed Gust Speed Precip Events Conditions
12:15 AM 32.0 °F 26.4 °F 32.0 °F 100% 29.74 in 1.8 mi West 5.8 mph - N/A Snow Light Snow
1:15 AM 32.0 °F 24.8 °F 32.0 °F 100% 29.72 in 3.0 mi WSW 8.1 mph - N/A Snow Light Snow
1:35 AM 32.0 °F 25.6 °F 32.0 °F 100% 29.72 in 3.0 mi SW 6.9 mph - N/A Snow Light Snow
1:55 AM 32.0 °F 23.6 °F 32.0 °F 100% 29.71 in 2.5 mi WSW 10.4 mph - N/A Snow Light Snow
2:15 AM 32.0 °F 24.2 °F 32.0 °F 100% 29.71 in 5.0 mi WSW 9.2 mph - N/A Snow Light Snow
2:35 AM 32.0 °F 23.6 °F 32.0 °F 100% 29.71 in 5.0 mi West 10.4 mph - N/A Snow Light Snow
2:55 AM 32.0 °F 23.6 °F 32.0 °F 100% 29.70 in 4.0 mi West 10.4 mph 16.1 mph N/A Snow Light Snow
3:15 AM 32.0 °F 27.5 °F 32.0 °F 100% 29.70 in 4.0 mi West 4.6 mph - N/A Snow Light Snow
3:35 AM 32.0 °F 25.6 °F 32.0 °F 100% 29.70 in 3.0 mi West 6.9 mph - N/A Snow Light Snow
3:55 AM 32.0 °F 26.4 °F 32.0 °F 100% 29.70 in 4.0 mi West 5.8 mph - N/A Snow Light Snow
4:15 AM 32.0 °F 26.4 °F 32.0 °F 100% 29.70 in 5.0 mi West 5.8 mph - N/A   Overcast
4:35 AM 32.0 °F 25.6 °F 30.2 °F 93% 29.70 in 3.0 mi West 6.9 mph - N/A Snow Light Snow
4:55 AM 32.0 °F 26.4 °F 30.2 °F 93% 29.70 in 3.0 mi West 5.8 mph - N/A Snow Light Snow
5:15 AM 30.2 °F 21.3 °F 30.2 °F 100% 29.70 in 3.0 mi WNW 10.4 mph - N/A Snow Light Snow
5:35 AM 30.2 °F 20.2 °F 30.2 °F 100% 29.71 in 4.0 mi WNW 12.7 mph 18.4 mph N/A Snow Light Snow
5:55 AM 30.2 °F 21.9 °F 30.2 °F 100% 29.72 in 4.0 mi West 9.2 mph - N/A Snow Light Snow
6:15 AM 30.2 °F 25.4 °F 30.2 °F 100% 29.72 in 3.0 mi WNW 4.6 mph - N/A Snow Light Snow
6:35 AM 30.2 °F 22.6 °F 30.2 °F 100% 29.72 in 2.5 mi West 8.1 mph - N/A Snow Light Snow
6:55 AM 28.4 °F 21.2 °F 28.4 °F 100% 29.72 in 2.0 mi West 6.9 mph - N/A Snow Light Snow
7:15 AM 30.2 °F 20.8 °F 30.2 °F 100% 29.73 in 2.0 mi West 11.5 mph - N/A Snow Light Snow
7:35 AM 30.2 °F 21.3 °F 28.4 °F 93% 29.74 in 1.0 mi West 10.4 mph - N/A Snow Light Snow
7:55 AM 30.2 °F 21.3 °F 28.4 °F 93% 29.74 in 1.0 mi West 10.4 mph 16.1 mph N/A Snow Light Snow
8:15 AM 30.2 °F 20.8 °F 28.4 °F 93% 29.74 in 2.0 mi WSW 11.5 mph - N/A Snow Light Snow
8:35 AM 30.2 °F 20.8 °F 28.4 °F 93% 29.75 in 2.5 mi West 11.5 mph 19.6 mph N/A Snow Light Snow
8:55 AM 30.2 °F 19.8 °F 26.6 °F 86% 29.74 in 2.0 mi West 13.8 mph 23.0 mph N/A Snow Light Snow
9:15 AM 30.2 °F 19.8 °F 26.6 °F 86% 29.75 in 3.0 mi West 13.8 mph 23.0 mph N/A Snow Light Snow
9:35 AM 30.2 °F 18.9 °F 24.8 °F 80% 29.76 in 2.5 mi West 16.1 mph 23.0 mph N/A   Haze
9:55 AM 30.2 °F 21.3 °F 24.8 °F 80% 29.76 in 2.5 mi West 10.4 mph 20.7 mph N/A   Haze
10:15 AM 30.2 °F 19.8 °F 23.0 °F 75% 29.76 in 2.5 mi West 13.8 mph 17.3 mph N/A   Haze
10:35 AM 30.2 °F 19.3 °F 24.8 °F 80% 29.77 in 3.0 mi West 15.0 mph 20.7 mph N/A   Haze
10:55 AM 30.2 °F 20.2 °F 24.8 °F 80% 29.77 in 2.5 mi West 12.7 mph 19.6 mph N/A   Haze
11:15 AM 32.0 °F 21.6 °F 24.8 °F 75% 29.78 in 3.0 mi West 15.0 mph - N/A   Haze
11:35 AM 32.0 °F 24.2 °F 26.6 °F 80% 29.78 in 2.5 mi West 9.2 mph - N/A   Haze
11:55 AM 32.0 °F 22.1 °F 26.6 °F 80% 29.78 in 2.5 mi West 13.8 mph 17.3 mph N/A   Haze
12:15 PM 32.0 °F 22.5 °F 26.6 °F 80% 29.79 in 2.5 mi West 12.7 mph 16.1 mph N/A   Haze
12:35 PM 32.0 °F 23.0 °F 26.6 °F 80% 29.79 in 3.0 mi West 11.5 mph - N/A   Haze
12:55 PM 32.0 °F 23.0 °F 26.6 °F 80% 29.78 in 3.0 mi WSW 11.5 mph - N/A   Haze
1:15 PM 32.0 °F 23.6 °F 26.6 °F 80% 29.78 in 3.0 mi West 10.4 mph - N/A   Haze
1:35 PM 32.0 °F 22.5 °F 26.6 °F 80% 29.78 in 3.0 mi WSW 12.7 mph 16.1 mph N/A   Haze
1:55 PM 32.0 °F 23.0 °F 26.6 °F 80% 29.78 in 3.0 mi West 11.5 mph 18.4 mph N/A   Haze
2:15 PM 32.0 °F 22.5 °F 28.4 °F 87% 29.78 in 4.0 mi WSW 12.7 mph 17.3 mph N/A   Overcast
2:35 PM 32.0 °F 24.2 °F 28.4 °F 87% 29.78 in 3.0 mi West 9.2 mph 16.1 mph N/A   Overcast
2:55 PM 32.0 °F 24.8 °F 28.4 °F 87% 29.79 in 3.0 mi WSW 8.1 mph - N/A   Overcast
3:15 PM 32.0 °F 22.1 °F 28.4 °F 87% 29.79 in 3.0 mi West 13.8 mph 17.3 mph N/A   Overcast
3:35 PM 32.0 °F 23.0 °F 28.4 °F 87% 29.80 in 2.5 mi West 11.5 mph - N/A   Overcast
3:55 PM 32.0 °F 24.2 °F 28.4 °F 87% 29.81 in 3.0 mi West 9.2 mph 17.3 mph N/A   Overcast
4:15 PM 30.2 °F 20.8 °F 28.4 °F 93% 29.81 in 3.0 mi West 11.5 mph - N/A   Overcast
4:35 PM 30.2 °F 20.2 °F 28.4 °F 93% 29.81 in 3.0 mi WSW 12.7 mph 17.3 mph N/A   Overcast
4:55 PM 30.2 °F 20.8 °F 28.4 °F 93% 29.82 in 4.0 mi West 11.5 mph - N/A   Overcast
5:15 PM 30.2 °F 19.8 °F 28.4 °F 93% 29.83 in 4.0 mi WSW 13.8 mph - N/A   Overcast
5:35 PM 30.2 °F 19.8 °F 28.4 °F 93% 29.84 in 4.0 mi WSW 13.8 mph - N/A   Overcast
6:15 PM 30.2 °F 20.8 °F 28.4 °F 93% 29.86 in 3.0 mi WSW 11.5 mph - N/A   Overcast
6:35 PM 30.2 °F 22.6 °F 30.2 °F 100% 29.86 in 3.0 mi West 8.1 mph - N/A   Overcast
6:55 PM 30.2 °F 20.8 °F 30.2 °F 100% 29.86 in 4.0 mi West 11.5 mph 18.4 mph N/A   Overcast
7:15 PM 30.2 °F 22.6 °F 30.2 °F 100% 29.86 in 4.0 mi West 8.1 mph - N/A   Overcast
7:35 PM 30.2 °F 21.3 °F 30.2 °F 100% 29.87 in 4.0 mi West 10.4 mph - N/A   Overcast
7:55 PM 30.2 °F 21.3 °F 30.2 °F 100% 29.87 in 4.0 mi West 10.4 mph - N/A   Overcast
8:15 PM 30.2 °F 23.4 °F 30.2 °F 100% 29.87 in 4.0 mi WNW 6.9 mph - N/A   Overcast
8:35 PM 30.2 °F 22.6 °F 30.2 °F 100% 29.87 in 4.0 mi WNW 8.1 mph - N/A   Overcast
8:55 PM 30.2 °F 23.4 °F 30.2 °F 100% 29.87 in 4.0 mi West 6.9 mph 16.1 mph N/A   Overcast
9:15 PM 30.2 °F 20.8 °F 30.2 °F 100% 29.88 in 4.0 mi West 11.5 mph 17.3 mph N/A   Overcast
9:35 PM 30.2 °F 20.8 °F 30.2 °F 100% 29.88 in 3.0 mi West 11.5 mph 16.1 mph N/A   Overcast
9:55 PM 30.2 °F 24.3 °F 30.2 °F 100% 29.88 in 2.5 mi West 5.8 mph 9.2 mph N/A   Overcast
10:15 PM 30.2 °F 22.6 °F 30.2 °F 100% 29.88 in 3.0 mi West 8.1 mph - N/A   Overcast
10:35 PM 30.2 °F 23.4 °F 30.2 °F 100% 29.88 in 3.0 mi West 6.9 mph - N/A   Overcast
10:55 PM 30.2 °F 22.6 °F 30.2 °F 100% 29.88 in 2.0 mi West 8.1 mph - N/A   Overcast
11:15 PM 30.2 °F 22.6 °F 30.2 °F 100% 29.88 in 2.5 mi West 8.1 mph - N/A   Overcast
11:35 PM 30.2 °F 23.4 °F 30.2 °F 100% 29.88 in 3.0 mi West 6.9 mph - N/A   Overcast